Location: Grust
(42.8833°N, 0.0333°W)
Time: 14:00:19
(UTC+00:00)

Cosmos 1408 - Pass Details

Date: 25 October 2020
Orbit: 470 x 492 km, 82.6° (Epoch: 24 November)

Event Time Altitude Azimuth Distance (km) Brightness Sun altitude
Rises 18:21:25 0° 3° (N) 2,549 6.2 -15.2°
Reaches altitude 10° 18:23:45 10° 16° (NNE) 1,669 5.1 -15.6°
Enters shadow 18:25:19 20° 36° (NE) 1,183 4.2 -15.9°
